[[{"header":{"parameterUnit":"m.s-1","parameterCategory":2,"la1":30.2991,"la2":30.254,"lo1":-89.0895,"lo2":-89.0444,"dy":0.0017,"dx":0.0017,"nx":28,"ny":28,"refTime":"2023-07-22T09:00:00:Z","depth":"0","parameterNumber":2,"parameterNumberName":"U-component_of_CURRENTS"},"data":[0,0,0,0,0,0,0,0,0,0,0,0,0,0,0,0,0,0,0,0,0,0,0,0,0,0,0,0,0,0,0,0,0,0,0,0,0,0,0,0,0,0,0,0,0,0,0,0,0,0,0,0,0,0,0,0,0,0,0.2432,0.2435,0,0.2633,0.2634,0.2635,0.2694,0.2694,0.2695,0.2695,0.2675,0.2674,0.2673,0,0,0,0,0,0,0,0,0,0,0,0,0,0.2192,0.2194,0.2431,0.2435,0.244,0.2633,0.2634,0.2636,0.2694,0.2694,0.2695,0.2696,0.2675,0.2674,0.2673,0,0,0,0,0,0,0,0,0,0,0,0,0,0.2318,0.2194,0.2431,0.2504,0.2514,0.2633,0.2634,0.2636,0.2694,0.2694,0.2695,0.2696,0.2676,0.2674,0.2673,0.2649,0,0,0.2668,0.2668,0,0,0,0,0,0,0,0,0.2311,0.2325,0.249,0.25,0.2511,0.2654,0.2544,0.2635,0.2694,0.2608,0.2695,0.2696,0.2658,0.2658,0.2673,0.2648,0.2648,0.2668,0.2667,0.2667,0.2666,0,0,0,0,0,0,0,0.2302,0.2317,0.2494,0.2494,0.2508,0.2562,0.2577,0.2561,0.2609,0.2615,0.2624,0.2673,0.266,0.2675,0.2673,0.2647,0.2668,0.2667,0.2666,0.2665,0.2622,0.2622,0,0,0,0,0,0,0.2306,0.2308,0.2488,0.2502,0.243,0.2566,0.2583,0.2594,0.2614,0.2625,0.2673,0.2676,0.2677,0.2675,0.2672,0.266,0.2667,0.2665,0.2664,0.2622,0.2622,0.2622,0,0,0,0,0,0,0.2299,0.2318,0.248,0.2426,0.2452,0.2571,0.2581,0.2598,0.2615,0.2664,0.2666,0.2676,0.2677,0.2674,0.2671,0.2659,0.2665,0.2663,0.2623,0.2622,0.2622,0.2626,0,0,0,0,0,0,0.229,0.2313,0.2291,0.2425,0.2456,0.2529,0.2583,0.2602,0.2653,0.2657,0.2666,0.2666,0.2678,0.2673,0.267,0.2657,0.2662,0.2623,0.2623,0.2622,0.2626,0.2626,0.2625,0,0,0,0,0,0.228,0.2283,0.2287,0.2309,0.243,0.253,0.2546,0.2624,0.2652,0.2641,0.2673,0.2666,0.2667,0.2672,0.2668,0.2655,0.2623,0.2623,0.2622,0.2626,0.2626,0.2625,0,0,0,0,0,0,0.2179,0.2295,0.2301,0.2337,0.2408,0.2545,0.257,0.2616,0.2635,0.2638,0.2665,0.2665,0.2657,0.2652,0.2658,0.2641,0.2642,0.264,0.2646,0.2646,0.2646,0.2627,0.2661,0,0,0,0,0,0.2142,0.2163,0.2276,0.2298,0.2336,0.2437,0.2482,0.2534,0.2599,0.261,0.2629,0.2642,0.265,0.2647,0.2646,0.2632,0.2624,0.262,0.2619,0.2619,0.2601,0.26,0.2598,0.262,0.262,0.262,0,0,0.2131,0.2182,0.2205,0.2276,0.2343,0.2392,0.2461,0.2534,0.2562,0.2599,0.2617,0.2634,0.2646,0.2645,0.2639,0.264,0.2609,0.2618,0.2618,0.26,0.2599,0.2597,0.2595,0.262,0.262,0.262,0,0,0.2128,0.2141,0.216,0.2213,0.2305,0.2356,0.2371,0.2485,0.251,0.2544,0.2579,0.2594,0.2605,0.262,0.2628,0.2616,0.2606,0.2611,0.2594,0.2594,0.2592,0.259,0.2579,0.2576,0.2612,0.2612,0.2612,0,0.2114,0.2137,0.2181,0.2216,0.2278,0.2335,0.2384,0.2409,0.25,0.2517,0.2542,0.2584,0.2595,0.2601,0.261,0.2613,0.2609,0.2599,0.2594,0.2592,0.259,0.2579,0.2576,0.2612,0.2612,0.2612,0.2612,0,0.2116,0.215,0.2179,0.2221,0.226,0.2326,0.2385,0.2392,0.2434,0.2475,0.2496,0.2532,0.2555,0.2566,0.259,0.258,0.258,0.2595,0.2596,0.2588,0.2577,0.2573,0.2613,0.2613,0.2612,0.2612,0,0,0.2158,0.2173,0.2208,0.2214,0.2285,0.2327,0.234,0.2382,0.2374,0.2434,0.2448,0.249,0.2508,0.2517,0.2543,0.2552,0.2549,0.2568,0.2568,0.2557,0.2539,0.2475,0.2465,0.2568,0.2567,0.2567,0.2538,0,0.2184,0.2194,0.2228,0.228,0.2301,0.2349,0.2349,0.2371,0.2382,0.2381,0.2427,0.2435,0.2487,0.2496,0.2515,0.2539,0.2539,0.2554,0.2546,0.2545,0.249,0.2458,0.2372,0.2333,0.2535,0.2534,0.2534,0,0.2221,0.2223,0.2219,0.2276,0.2298,0.2311,0.2314,0.2335,0.2323,0.2333,0.2348,0.2368,0.2394,0.2433,0.247,0.2479,0.2499,0.2521,0.2521,0.245,0.2473,0.2372,0.2319,0.2223,0.2528,0.2529,0.2529,0,0.218,0.227,0.223,0.2254,0.2273,0.2286,0.2324,0.2309,0.2306,0.2288,0.2259,0.2304,0.2313,0.2359,0.2415,0.244,0.2441,0.2481,0.2436,0.2432,0.2348,0.2336,0.2196,0.248,0.248,0.248,0.248,0,0.2183,0.221,0.2199,0.218,0.2181,0.2241,0.223,0.224,0.2238,0.2205,0.2226,0.2191,0.2294,0.2311,0.2376,0.2385,0.2411,0.2408,0.2412,0.2346,0.2336,0.224,0.2222,0.2479,0.2479,0.248,0.248,0,0.2112,0.2103,0.2077,0.2099,0.2124,0.2113,0.2197,0.218,0.2171,0.212,0.2114,0.2111,0.2138,0.2218,0.2285,0.2309,0.2258,0.2337,0.2245,0.2237,0.2101,0.2087,0.1881,0.1841,0.2274,0.2272,0.2271,0,0.2034,0.199,0.1983,0.1972,0.198,0.2016,0.2038,0.2112,0.2103,0.2061,0.2026,0.2025,0.2005,0.206,0.2152,0.2223,0.2167,0.2127,0.2152,0.2046,0.2036,0.1966,0.1945,0.2051,0.2048,0.2045,0.2043,0,0.19,0.1874,0.183,0.1832,0.1843,0.1884,0.1947,0.1931,0.1987,0.1931,0.1872,0.1852,0.1904,0.192,0.1994,0.2043,0.1988,0.2071,0.1986,0.1848,0.1738,0.1717,0.2118,0.2019,0.2021,0.2023,0.2024,0.2025,0.1779,0.1725,0.168,0.1685,0.1718,0.1754,0.1755,0.18,0.1776,0.1684,0.1738,0.1644,0.1685,0.1794,0.1816,0.1776,0.1846,0.1728,0.1722,0.1662,0.1594,0.1924,0.1816,0.1818,0.1819,0.182,0.182,0,0.1612,0.1596,0.1587,0.1574,0.1594,0.1664,0.1686,0.1657,0.1591,0.1545,0.1489,0.1423,0.1414,0.1454,0.1497,0.1435,0.141,0.1374,0.1266,0.1273,0.1581,0.1542,0.1337,0.1337,0.1337,0.1338,0.1338,0.1338,0.15,0.1438,0.1457,0.1451,0.148,0.1473,0.146,0.1392,0.1358,0.1225,0.1134,0.1142,0.1202,0.1173,0.1117,0.111,0.1021,0.0948,0.0973,0.1199,0.1232,0.1263,0.1219,0.095,0.0949,0.0616,0.0613,0.0611]},{"header":{"parameterUnit":"m.s-1","parameterCategory":2,"la1":30.2991,"la2":30.254,"lo1":-89.0895,"lo2":-89.0444,"dy":0.0017,"dx":0.0017,"nx":28,"ny":28,"refTime":"2023-07-22T09:00:00:Z","depth":"0","parameterNumber":3,"parameterNumberName":"V-component_of_CURRENTS"},"data":[0,0,0,0,0,0,0,0,0,0,0,0,0,0,0,0,0,0,0,0,0,0,0,0,0,0,0,0,0,0,0,0,0,0,0,0,0,0,0,0,0,0,0,0,0,0,0,0,0,0,0,0,0,0,0,0,0,0,0.0351,0.035,0,0.032,0.0319,0.0319,0.0302,0.0302,0.0302,0.0302,0.0354,0.0355,0.0357,0,0,0,0,0,0,0,0,0,0,0,0,0,0.0218,0.0222,0.0351,0.035,0.035,0.032,0.0319,0.0319,0.0302,0.0302,0.0302,0.0302,0.0354,0.0355,0.0357,0,0,0,0,0,0,0,0,0,0,0,0,0,0.0239,0.0223,0.0351,0.034,0.0339,0.032,0.0319,0.0319,0.0302,0.0302,0.0302,0.0303,0.0353,0.0355,0.0357,0.0364,0,0,0.0363,0.0363,0,0,0,0,0,0,0,0,0.0238,0.0244,0.0342,0.0341,0.0339,0.0317,0.0292,0.0339,0.0302,0.0313,0.0302,0.0303,0.0351,0.0353,0.0342,0.0366,0.0368,0.0363,0.0364,0.0365,0.0365,0,0,0,0,0,0,0,0.0237,0.0244,0.0336,0.0341,0.034,0.0276,0.0281,0.0299,0.0331,0.0312,0.0312,0.0312,0.035,0.034,0.0343,0.0369,0.0363,0.0364,0.0365,0.0366,0.0417,0.0417,0,0,0,0,0,0,0.0255,0.0244,0.0337,0.0336,0.0291,0.0279,0.0284,0.0322,0.0329,0.033,0.0312,0.0311,0.0337,0.0341,0.0345,0.0388,0.0365,0.0366,0.0367,0.0417,0.0417,0.0417,0,0,0,0,0,0,0.0253,0.0265,0.0338,0.0287,0.0293,0.0283,0.0324,0.0321,0.0318,0.0328,0.033,0.0313,0.0337,0.0343,0.0362,0.0389,0.0367,0.0369,0.0416,0.0417,0.0417,0.0451,0,0,0,0,0,0,0.025,0.0266,0.0276,0.0291,0.0297,0.034,0.0324,0.0321,0.0319,0.0318,0.033,0.0334,0.0338,0.0359,0.0363,0.0391,0.037,0.0416,0.0416,0.0417,0.045,0.0453,0.0455,0,0,0,0,0,0.0246,0.0276,0.0278,0.0287,0.0321,0.0341,0.0338,0.0327,0.0319,0.0323,0.0323,0.0334,0.0365,0.036,0.0366,0.0394,0.0416,0.0416,0.0417,0.0449,0.0452,0.0455,0,0,0,0,0,0,0.0195,0.0277,0.028,0.0324,0.0333,0.0339,0.0335,0.0331,0.0331,0.0329,0.0336,0.0341,0.0365,0.037,0.0365,0.0407,0.0393,0.0395,0.0415,0.0419,0.0421,0.0433,0.0372,0,0,0,0,0,0.0197,0.0248,0.0294,0.0311,0.0335,0.0334,0.0332,0.0332,0.034,0.0339,0.0351,0.0359,0.037,0.0386,0.0393,0.0422,0.042,0.0442,0.0445,0.0447,0.0459,0.0462,0.0466,0.0419,0.0419,0.0419,0,0,0.0156,0.022,0.023,0.0303,0.0311,0.0339,0.0334,0.0346,0.0357,0.0347,0.0367,0.0368,0.0375,0.04,0.0413,0.0412,0.046,0.0448,0.045,0.0461,0.0463,0.0468,0.0472,0.0419,0.0419,0.0419,0,0,0.0131,0.019,0.0231,0.0273,0.0318,0.0326,0.0338,0.0364,0.0374,0.0394,0.0383,0.0399,0.0424,0.0432,0.0439,0.0462,0.0467,0.0468,0.0505,0.0508,0.0512,0.0516,0.0519,0.0523,0.0478,0.0478,0.0478,0,0.0082,0.0165,0.0227,0.0295,0.0321,0.033,0.0363,0.0375,0.0392,0.0404,0.0409,0.043,0.0441,0.0464,0.0476,0.0472,0.0472,0.0494,0.0512,0.0516,0.0519,0.0522,0.0526,0.048,0.048,0.048,0.048,0,0.0111,0.0169,0.0201,0.0299,0.0323,0.0358,0.0402,0.0415,0.0428,0.0439,0.0469,0.0479,0.049,0.0503,0.0505,0.0534,0.0525,0.0509,0.0507,0.0526,0.0528,0.0531,0.0483,0.0482,0.0481,0.0481,0,0,0.0046,0.0194,0.0201,0.0252,0.0345,0.0366,0.04,0.0437,0.0454,0.0481,0.0506,0.0537,0.0538,0.0546,0.0547,0.0569,0.0597,0.056,0.056,0.057,0.0607,0.0567,0.0566,0.0584,0.0585,0.0585,0.0599,0,0.0051,0.0147,0.0229,0.0286,0.0343,0.0397,0.0428,0.0454,0.048,0.0506,0.0529,0.0549,0.0556,0.0563,0.0586,0.0586,0.0607,0.0595,0.0582,0.0582,0.0549,0.057,0.0625,0.0639,0.0602,0.0602,0.0603,0,0.0093,0.0145,0.0201,0.0314,0.0345,0.0369,0.0421,0.046,0.0501,0.0526,0.0549,0.0561,0.0592,0.0593,0.0621,0.0611,0.0619,0.0627,0.0626,0.0582,0.0549,0.0613,0.0646,0.0686,0.0608,0.0607,0.0607,0,0.0047,0.0156,0.0187,0.023,0.0328,0.0354,0.0397,0.0447,0.0487,0.0529,0.0544,0.0578,0.0589,0.0608,0.0623,0.0624,0.0649,0.0641,0.0615,0.0612,0.0654,0.0652,0.073,0.0667,0.0667,0.0667,0.0667,0,0.0085,0.0129,0.016,0.0196,0.0219,0.0314,0.0357,0.0405,0.0468,0.0506,0.0544,0.056,0.0596,0.061,0.0626,0.0625,0.0643,0.063,0.0615,0.0665,0.0664,0.0694,0.0702,0.0667,0.0667,0.0667,0.0667,0,0.0089,0.0114,0.0158,0.0205,0.0216,0.0233,0.0335,0.0375,0.0433,0.0477,0.0489,0.0545,0.0564,0.059,0.0619,0.0617,0.066,0.0621,0.0675,0.0666,0.0665,0.0672,0.07,0.0783,0.0599,0.0598,0.0598,0,0.0117,0.0129,0.013,0.0118,0.0148,0.0185,0.0224,0.0327,0.0377,0.046,0.0476,0.0511,0.0535,0.0557,0.0582,0.0599,0.0641,0.0638,0.0648,0.0681,0.068,0.0675,0.0745,0.0725,0.0725,0.0725,0.0726,0,0.015,0.0127,0.0124,0.009,0.0103,0.0149,0.0218,0.0249,0.0368,0.0401,0.0452,0.0478,0.0518,0.0563,0.0581,0.0602,0.0694,0.064,0.068,0.0789,0.0789,0.0855,0.0694,0.0728,0.0728,0.0728,0.0728,0.0728,0.0141,0.0122,0.009,0.0069,0.0077,0.013,0.0169,0.0243,0.0314,0.039,0.042,0.0467,0.0559,0.06,0.0615,0.0701,0.0696,0.0736,0.0745,0.0738,0.0815,0.0644,0.0647,0.0646,0.0646,0.0645,0.0645,0,0.0136,0.0123,0.0094,0.0069,0.0081,0.0105,0.0177,0.0212,0.0276,0.035,0.0394,0.051,0.0596,0.0673,0.0772,0.0812,0.0884,0.0844,0.0897,0.097,0.0834,0.0838,0.0877,0.0877,0.0877,0.0877,0.0877,0.0877,0.0143,0.0106,0.0091,0.0083,0.0074,0.0108,0.0145,0.0181,0.0235,0.0314,0.0388,0.0466,0.0642,0.0722,0.0863,0.091,0.1025,0.0987,0.1036,0.0971,0.0963,0.0956,0.0964,0.1029,0.1029,0.1233,0.1234,0.1235]}],[{"header":{"parameterUnit":"m.s-1","parameterCategory":2,"la1":30.2991,"la2":30.254,"lo1":-89.0895,"lo2":-89.0444,"dy":0.0017,"dx":0.0017,"nx":28,"ny":28,"refTime":"2023-07-22T09:00:00:Z","depth":"2","parameterNumber":2,"parameterNumberName":"U-component_of_CURRENTS"},"data":[0,0,0,0,0,0,0,0,0,0,0,0,0,0,0,0,0,0,0,0,0,0,0,0,0,0,0,0,0,0,0,0,0,0,0,0,0,0,0,0,0,0,0,0,0,0,0,0,0,0,0,0,0,0,0,0,0,0,0.0309,0.0308,0,0.0229,0.0228,0.0228,0.0372,0.0377,0.0382,0.0386,0.0529,0.0529,0.0528,0,0,0,0,0,0,0,0,0,0,0,0,0,0.0617,0.0611,0.0309,0.0308,0.0307,0.0229,0.0228,0.0227,0.0371,0.0377,0.0383,0.0388,0.053,0.0529,0.0528,0,0,0,0,0,0,0,0,0,0,0,0,0,0.0507,0.0609,0.031,0.0368,0.0372,0.0229,0.0228,0.0227,0.037,0.0377,0.0384,0.0391,0.053,0.0529,0.0528,0.0385,0,0,0.0526,0.0526,0,0,0,0,0,0,0,0,0.0513,0.0496,0.036,0.0363,0.0368,0.0316,0.0389,0.029,0.0369,0.0373,0.0386,0.0394,0.0472,0.0476,0.0446,0.0392,0.0398,0.0526,0.0526,0.0525,0.0525,0,0,0,0,0,0,0,0.052,0.05,0.028,0.0358,0.0363,0.0407,0.0399,0.037,0.0391,0.0374,0.0383,0.0368,0.0477,0.0446,0.0451,0.04,0.0526,0.0526,0.0525,0.0525,0.0673,0.0677,0,0,0,0,0,0,0.0514,0.0505,0.0283,0.0278,0.0456,0.0396,0.0387,0.0327,0.0387,0.04,0.0362,0.0375,0.0444,0.0452,0.0457,0.0525,0.0525,0.0525,0.0524,0.0668,0.0674,0.0678,0,0,0,0,0,0,0.052,0.0493,0.0286,0.0392,0.0369,0.0383,0.0315,0.0322,0.0341,0.0375,0.0395,0.0381,0.045,0.0458,0.0524,0.0524,0.0524,0.0524,0.0663,0.067,0.0676,0.0512,0,0,0,0,0,0,0.0528,0.0494,0.0474,0.0389,0.0362,0.0222,0.0308,0.0315,0.0317,0.0334,0.0395,0.0413,0.0456,0.0525,0.0523,0.0523,0.0523,0.0658,0.0666,0.0674,0.0512,0.0512,0.0512,0,0,0,0,0,0.0539,0.0483,0.0472,0.0447,0.0323,0.022,0.021,0.0248,0.0311,0.0297,0.0395,0.0414,0.058,0.0524,0.0522,0.0522,0.0654,0.0664,0.0673,0.0511,0.0512,0.0512,0,0,0,0,0,0,0.0602,0.0488,0.0477,0.0388,0.0317,0.0245,0.0219,0.0244,0.0292,0.0357,0.0408,0.043,0.0538,0.0551,0.049,0.0616,0.0641,0.0651,0.052,0.052,0.052,0.0503,0.0523,0,0,0,0,0,0.0593,0.0561,0.0423,0.038,0.0299,0.0256,0.0231,0.0267,0.028,0.0309,0.0354,0.0455,0.0555,0.0555,0.0662,0.0622,0.0621,0.0658,0.0658,0.0656,0.0657,0.0722,0.0723,0.071,0.071,0.071,0,0,0.0621,0.0557,0.0543,0.0399,0.0325,0.0228,0.0259,0.0225,0.0233,0.0313,0.0356,0.0471,0.0576,0.063,0.067,0.0627,0.0636,0.0669,0.0664,0.0667,0.0731,0.0731,0.0731,0.0717,0.0716,0.0715,0,0,0.0637,0.0552,0.05,0.0414,0.032,0.0267,0.0254,0.0184,0.0224,0.026,0.0391,0.0472,0.056,0.061,0.0656,0.0697,0.0695,0.0781,0.0663,0.0723,0.0722,0.0721,0.0575,0.0563,0.0703,0.0703,0.0703,0,0.0635,0.0565,0.0477,0.0377,0.0299,0.0271,0.017,0.0179,0.0199,0.0273,0.0298,0.049,0.0545,0.0598,0.0646,0.0679,0.0683,0.0619,0.0709,0.071,0.0712,0.0565,0.0553,0.0696,0.0697,0.0698,0.0698,0,0.0622,0.0531,0.0468,0.033,0.024,0.0165,0.0094,0.0115,0.017,0.0258,0.0381,0.0406,0.0551,0.0547,0.0595,0.0646,0.0628,0.0745,0.0668,0.07,0.0545,0.0535,0.0686,0.0689,0.0691,0.0692,0,0,0.058,0.0472,0.0447,0.0372,0.0207,0.0133,0.0108,0.01,0.0203,0.0231,0.0313,0.0399,0.0508,0.0567,0.0588,0.053,0.0471,0.0624,0.063,0.0401,0.0481,0.0549,0.0544,0.0635,0.0636,0.0637,0.0308,0,0.0535,0.0483,0.0369,0.0234,0.0135,0.0042,-0.0001,0.0064,0.0191,0.03,0.0336,0.0483,0.0489,0.0545,0.0516,0.057,0.047,0.0541,0.0555,0.055,0.0549,0.0548,0.0472,0.019,0.0299,0.0297,0.0296,0,0.0495,0.0464,0.0416,0.0208,0.0125,0.0062,0.0051,0.0029,0.0211,0.0291,0.0434,0.0597,0.0556,0.0567,0.0502,0.0575,0.0543,0.047,0.0461,0.0595,0.0612,0.022,0.017,0.0281,0.0282,0.0283,0.0284,0,0.0609,0.042,0.0441,0.0377,0.0189,0.014,0.0029,0.0145,0.0159,0.0367,0.0478,0.0548,0.0566,0.0549,0.0522,0.0562,0.0399,0.0453,0.0399,0.0392,0.0366,0.0362,0.0403,0.0403,0.0404,0.0405,0.0406,0,0.0594,0.0543,0.0539,0.0507,0.0424,0.0261,0.0236,0.0199,0.0239,0.0336,0.0533,0.0553,0.0607,0.0605,0.0519,0.0421,0.0427,0.0362,0.0363,0.0299,0.0294,0.0465,0.0477,0.0392,0.0395,0.0398,0.04,0,0.0716,0.0727,0.0669,0.0546,0.048,0.0462,0.0203,0.0219,0.0288,0.0401,0.0456,0.0567,0.0565,0.055,0.0451,0.0427,0.0297,0.0256,0.0079,0.0074,0.0197,0.0205,0.0129,0.013,0.013,0.0131,0.0131,0,0.075,0.0822,0.0759,0.0691,0.0614,0.0525,0.0391,0.026,0.025,0.0384,0.0384,0.0522,0.0568,0.039,0.034,0.0172,0.0232,0.0054,0.017,0.0185,0.0191,0.0199,0.0206,-0.0058,-0.0059,-0.006,-0.0061,0,0.0757,0.0857,0.0842,0.0756,0.0629,0.05,0.0322,0.0303,0.0237,0.034,0.0386,0.0462,0.0414,0.0273,0.0187,0.008,0.0102,0.004,0.0129,0.0113,0.0012,0.0019,0.003,-0.0069,-0.0068,-0.0067,-0.0067,-0.0067,0.0736,0.0788,0.0794,0.0724,0.0605,0.0486,0.0409,0.0276,0.0243,0.0342,0.0306,0.0364,0.0196,0.0067,0.0014,0.0062,0.0034,0.0002,0.0002,0.0003,0.0132,0.0052,-0.0018,-0.0017,-0.0016,-0.0016,-0.0015,0,0.0627,0.071,0.0645,0.0545,0.046,0.045,0.0328,0.0292,0.0305,0.0265,0.0285,0.0129,0.0005,-0.0028,0.0012,-0.0016,-0.003,0.0018,-0.0033,-0.0031,-0.0028,0.0103,-0.0059,-0.0057,-0.0055,-0.0054,0,0,0.0541,0.0524,0.0562,0.0429,0.0415,0.0379,0.0405,0.0377,0.0314,0.0211,0.0175,-0.001,-0.0079,-0.009,-0.015,-0.004,-0.0004,-0.0026,-0.0024,-0.0086,-0.0079,-0.0107,0.0089,0,0,0,0,0]},{"header":{"parameterUnit":"m.s-1","parameterCategory":2,"la1":30.2991,"la2":30.254,"lo1":-89.0895,"lo2":-89.0444,"dy":0.0017,"dx":0.0017,"nx":28,"ny":28,"refTime":"2023-07-22T09:00:00:Z","depth":"2","parameterNumber":3,"parameterNumberName":"V-component_of_CURRENTS"},"data":[0,0,0,0,0,0,0,0,0,0,0,0,0,0,0,0,0,0,0,0,0,0,0,0,0,0,0,0,0,0,0,0,0,0,0,0,0,0,0,0,0,0,0,0,0,0,0,0,0,0,0,0,0,0,0,0,0,0,-0.0331,-0.0332,0,-0.0486,-0.0488,-0.049,-0.0606,-0.0607,-0.0607,-0.0608,-0.0618,-0.0618,-0.0617,0,0,0,0,0,0,0,0,0,0,0,0,0,-0.0175,-0.0178,-0.033,-0.0332,-0.0334,-0.0485,-0.0488,-0.049,-0.0606,-0.0607,-0.0608,-0.0609,-0.0618,-0.0618,-0.0617,0,0,0,0,0,0,0,0,0,0,0,0,0,-0.028,-0.0178,-0.033,-0.0408,-0.0416,-0.0485,-0.0488,-0.0491,-0.0605,-0.0607,-0.0608,-0.0609,-0.0619,-0.0618,-0.0617,-0.0588,0,0,-0.0615,-0.0615,0,0,0,0,0,0,0,0,-0.0274,-0.0286,-0.0395,-0.0403,-0.0412,-0.0526,-0.0437,-0.0515,-0.0605,-0.0536,-0.0608,-0.061,-0.0571,-0.0575,-0.0606,-0.0588,-0.0589,-0.0615,-0.0614,-0.0614,-0.0614,0,0,0,0,0,0,0,-0.0266,-0.028,-0.0394,-0.0397,-0.0407,-0.0449,-0.0465,-0.0453,-0.0544,-0.0542,-0.055,-0.0564,-0.0576,-0.0607,-0.0607,-0.0589,-0.0615,-0.0614,-0.0614,-0.0613,-0.0546,-0.0544,0,0,0,0,0,0,-0.0239,-0.0273,-0.0389,-0.0399,-0.0342,-0.0451,-0.0469,-0.049,-0.0547,-0.0558,-0.0562,-0.0568,-0.0608,-0.0608,-0.0607,-0.0585,-0.0614,-0.0613,-0.0613,-0.0547,-0.0545,-0.0544,0,0,0,0,0,0,-0.0236,-0.0248,-0.0383,-0.0337,-0.0357,-0.0452,-0.0475,-0.0492,-0.053,-0.0564,-0.0573,-0.0582,-0.0609,-0.0609,-0.0609,-0.0585,-0.0613,-0.0612,-0.0549,-0.0546,-0.0545,-0.0532,0,0,0,0,0,0,-0.0231,-0.0246,-0.0245,-0.0335,-0.0358,-0.0431,-0.0474,-0.0494,-0.0535,-0.0544,-0.0582,-0.0586,-0.061,-0.061,-0.0608,-0.0585,-0.0612,-0.055,-0.0548,-0.0545,-0.0534,-0.053,-0.0526,0,0,0,0,0,-0.0225,-0.0213,-0.0244,-0.0258,-0.0356,-0.0431,-0.0448,-0.052,-0.0534,-0.0557,-0.0579,-0.0585,-0.0592,-0.0609,-0.0607,-0.0583,-0.0551,-0.0548,-0.0545,-0.0536,-0.0531,-0.0527,0,0,0,0,0,0,-0.0173,-0.0226,-0.0262,-0.0276,-0.0353,-0.045,-0.0468,-0.0511,-0.055,-0.0555,-0.0578,-0.0582,-0.0566,-0.0571,-0.0589,-0.0552,-0.0567,-0.0563,-0.056,-0.0555,-0.0551,-0.0547,-0.0611,0,0,0,0,0,-0.0152,-0.0168,-0.0235,-0.0273,-0.0283,-0.0372,-0.0405,-0.0465,-0.0514,-0.0536,-0.0557,-0.0563,-0.055,-0.0553,-0.055,-0.0534,-0.052,-0.0512,-0.0508,-0.0505,-0.0497,-0.0454,-0.0446,-0.0534,-0.0534,-0.0534,0,0,-0.0175,-0.019,-0.0218,-0.0264,-0.0321,-0.0347,-0.0397,-0.0458,-0.049,-0.0521,-0.0547,-0.0546,-0.054,-0.0532,-0.0524,-0.0537,-0.0472,-0.0501,-0.0498,-0.0492,-0.045,-0.0441,-0.0434,-0.0532,-0.0532,-0.0533,0,0,-0.0184,-0.0207,-0.0199,-0.0235,-0.0291,-0.0344,-0.0351,-0.0432,-0.0465,-0.0494,-0.0508,-0.0508,-0.05,-0.0508,-0.0501,-0.0466,-0.0446,-0.0442,-0.0429,-0.0387,-0.038,-0.0373,-0.035,-0.0341,-0.0449,-0.0448,-0.0448,0,-0.0186,-0.0198,-0.0222,-0.0208,-0.0244,-0.0328,-0.0346,-0.0386,-0.0469,-0.0465,-0.0497,-0.048,-0.0493,-0.0461,-0.046,-0.0459,-0.0426,-0.0453,-0.0383,-0.0376,-0.0369,-0.0347,-0.0337,-0.0448,-0.0448,-0.0448,-0.0448,0,-0.0208,-0.0193,-0.0194,-0.0205,-0.024,-0.0288,-0.0333,-0.0367,-0.0405,-0.0427,-0.0413,-0.0448,-0.0426,-0.0433,-0.0441,-0.0387,-0.0376,-0.0378,-0.04,-0.036,-0.0339,-0.0329,-0.0446,-0.0447,-0.0447,-0.0447,0,0,-0.0292,-0.021,-0.0218,-0.02,-0.0245,-0.0287,-0.0307,-0.0336,-0.0327,-0.0379,-0.0354,-0.0366,-0.0357,-0.0349,-0.0359,-0.0354,-0.0301,-0.0342,-0.034,-0.0327,-0.0199,-0.0125,-0.0108,-0.0274,-0.0272,-0.027,-0.0206,0,-0.0312,-0.0244,-0.0225,-0.0236,-0.022,-0.0266,-0.0287,-0.0319,-0.0324,-0.0309,-0.032,-0.0296,-0.0326,-0.0319,-0.0305,-0.0295,-0.0271,-0.0318,-0.0232,-0.023,-0.0175,-0.0093,-0.0157,-0.0097,-0.0197,-0.0195,-0.0194,0,-0.0347,-0.0301,-0.0253,-0.0219,-0.0221,-0.0245,-0.028,-0.0298,-0.0267,-0.0267,-0.0225,-0.0199,-0.0181,-0.0223,-0.0179,-0.0194,-0.0178,-0.0194,-0.0191,-0.0116,-0.0136,-0.0149,-0.0076,-0.0178,-0.018,-0.0181,-0.0182,0,-0.0397,-0.0328,-0.0281,-0.0282,-0.0258,-0.0264,-0.0287,-0.0278,-0.0277,-0.0213,-0.0177,-0.0133,-0.0131,-0.0092,-0.0093,-0.0112,-0.0051,-0.0081,-0.0006,-0.0002,-0.0038,-0.0039,-0.0029,-0.0029,-0.0029,-0.003,-0.003,0,-0.0419,-0.0385,-0.0293,-0.0284,-0.0299,-0.0276,-0.0289,-0.0287,-0.0254,-0.0208,-0.0135,-0.011,-0.0094,-0.0044,-0.004,0.0024,0.0009,0.0026,0.0039,-0.0034,-0.0035,-0.0096,-0.0104,-0.0027,-0.0028,-0.0028,-0.0029,0,-0.0425,-0.0369,-0.0307,-0.0275,-0.0299,-0.0297,-0.0328,-0.0324,-0.0267,-0.0199,-0.017,-0.0095,-0.002,0.0019,0.0048,0.0084,0.0126,0.0148,0.0059,0.0063,0.013,0.0121,0.0261,0.0264,0.0267,0.027,0.0272,0,-0.0403,-0.0358,-0.0307,-0.0345,-0.0327,-0.0352,-0.0403,-0.037,-0.0344,-0.0195,-0.0162,-0.0046,0.0053,0.015,0.0221,0.0307,0.0203,0.0252,0.021,0.0172,0.0169,0.0155,0.0143,0.0146,0.0147,0.0148,0.0148,0,-0.0367,-0.0316,-0.0275,-0.0351,-0.0396,-0.0431,-0.0458,-0.0436,-0.0346,-0.0243,-0.0107,0.001,0.0172,0.0223,0.0348,0.0376,0.0246,0.0277,0.027,0.0103,0.0076,0.0069,0.0058,0.0155,0.0154,0.0154,0.0154,0.0153,-0.0346,-0.0316,-0.0292,-0.0362,-0.0413,-0.0459,-0.046,-0.0424,-0.0335,-0.0125,-0.0089,0.0101,0.0093,0.0317,0.0378,0.0445,0.0436,0.0325,0.0317,0.0309,0.0306,0.0289,0.0404,0.0405,0.0406,0.0406,0.0407,0,-0.033,-0.032,-0.0364,-0.0411,-0.0441,-0.047,-0.0472,-0.0421,-0.0257,-0.0121,0.0034,0.0103,0.02,0.0243,0.0391,0.0465,0.045,0.0406,0.0281,0.0273,0.0266,0.0256,0.0344,0.0344,0.0345,0.0346,0,0,-0.034,-0.035,-0.0363,-0.0417,-0.0446,-0.0435,-0.0398,-0.0297,-0.0204,-0.0041,0.0067,0.0151,0.0181,0.0208,0.0235,0.029,0.0292,0.0325,0.0355,0.0191,0.0185,0.0187,0.016,0,0,0,0,0]}],[{"header":{"parameterUnit":"m.s-1","parameterCategory":2,"la1":30.2991,"la2":30.254,"lo1":-89.0895,"lo2":-89.0444,"dy":0.0017,"dx":0.0017,"nx":28,"ny":28,"refTime":"2023-07-22T09:00:00:Z","depth":"4","parameterNumber":2,"parameterNumberName":"U-component_of_CURRENTS"},"data":[0,0,0,0,0,0,0,0,0,0,0,0,0,0,0,0,0,0,0,0,0,0,0,0,0,0,0,0,0,0,0,0,0,0,0,0,0,0,0,0,0,0,0,0,0,0,0,0,0,0,0,0,0,0,0,0,0,0,-0.0762,-0.0762,0,-0.0838,-0.0839,-0.084,-0.0892,-0.0892,-0.0893,-0.0893,-0.0926,-0.0927,-0.0928,0,0,0,0,0,0,0,0,0,0,0,0,0,-0.0795,-0.0794,-0.0762,-0.0762,-0.0763,-0.0837,-0.0839,-0.084,-0.0892,-0.0892,-0.0893,-0.0893,-0.0926,-0.0927,-0.0928,0,0,0,0,0,0,0,0,0,0,0,0,0,-0.0818,-0.0793,-0.0761,-0.0797,-0.0801,-0.0837,-0.0839,-0.084,-0.0892,-0.0892,-0.0893,-0.0893,-0.0926,-0.0927,-0.0928,-0.0926,0,0,-0.0931,-0.0931,0,0,0,0,0,0,0,0,-0.0816,-0.0817,-0.0791,-0.0795,-0.0799,-0.0854,-0.0863,-0.0866,-0.0892,-0.0859,-0.0893,-0.0893,-0.0897,-0.09,-0.0917,-0.0928,-0.0929,-0.0931,-0.0931,-0.0932,-0.0932,0,0,0,0,0,0,0,-0.0815,-0.0815,-0.0793,-0.0792,-0.0797,-0.0855,-0.0857,-0.0865,-0.0875,-0.0862,-0.0866,-0.0871,-0.0899,-0.0916,-0.0918,-0.093,-0.0931,-0.0932,-0.0932,-0.0933,-0.0999,-0.1,0,0,0,0,0,0,-0.0794,-0.0812,-0.0791,-0.0795,-0.0807,-0.0853,-0.0856,-0.0837,-0.0876,-0.0883,-0.0871,-0.0873,-0.0914,-0.0916,-0.0919,-0.1014,-0.0932,-0.0933,-0.0933,-0.0997,-0.0999,-0.1,0,0,0,0,0,0,-0.0794,-0.079,-0.0788,-0.0806,-0.081,-0.0851,-0.083,-0.0839,-0.0877,-0.0883,-0.0889,-0.0903,-0.0914,-0.0918,-0.093,-0.1012,-0.0933,-0.0934,-0.0996,-0.0998,-0.0999,-0.1144,0,0,0,0,0,0,-0.0794,-0.0789,-0.079,-0.0803,-0.0808,-0.0826,-0.083,-0.084,-0.0878,-0.0883,-0.0912,-0.0914,-0.0915,-0.0928,-0.0931,-0.1012,-0.0935,-0.0995,-0.0997,-0.0999,-0.1138,-0.115,-0.1161,0,0,0,0,0,-0.0795,-0.0799,-0.0788,-0.0787,-0.0798,-0.0827,-0.0836,-0.0868,-0.0879,-0.0903,-0.0908,-0.0915,-0.0945,-0.0929,-0.0932,-0.1016,-0.0994,-0.0996,-0.0999,-0.1132,-0.1148,-0.1161,0,0,0,0,0,0,-0.0823,-0.0805,-0.0794,-0.0793,-0.0811,-0.0835,-0.0874,-0.088,-0.0907,-0.0916,-0.0916,-0.0919,-0.0972,-0.095,-0.0933,-0.1035,-0.0976,-0.098,-0.1077,-0.1091,-0.1103,-0.1111,-0.0936,0,0,0,0,0,-0.0821,-0.082,-0.0811,-0.0819,-0.0829,-0.0851,-0.0874,-0.0886,-0.0902,-0.0918,-0.0936,-0.0951,-0.0983,-0.0998,-0.1013,-0.1054,-0.1046,-0.1109,-0.1121,-0.1132,-0.1137,-0.1216,-0.1237,-0.1009,-0.1009,-0.1009,0,0,-0.0833,-0.0828,-0.0826,-0.0826,-0.0849,-0.0869,-0.0868,-0.0907,-0.0936,-0.0914,-0.0973,-0.0994,-0.0998,-0.106,-0.1083,-0.1055,-0.1182,-0.1135,-0.1145,-0.1144,-0.1221,-0.1244,-0.1264,-0.101,-0.101,-0.101,0,0,-0.0868,-0.0855,-0.0866,-0.0871,-0.0895,-0.091,-0.0921,-0.0949,-0.0982,-0.1015,-0.1028,-0.1082,-0.1109,-0.115,-0.1168,-0.1241,-0.1243,-0.126,-0.1336,-0.1415,-0.1435,-0.1453,-0.1439,-0.1455,-0.1267,-0.1268,-0.1268,0,-0.0882,-0.0887,-0.0883,-0.0892,-0.0904,-0.0927,-0.0944,-0.0983,-0.1014,-0.105,-0.1045,-0.1144,-0.1157,-0.1251,-0.1292,-0.1278,-0.129,-0.1292,-0.1435,-0.1453,-0.1469,-0.1451,-0.1467,-0.1275,-0.1274,-0.1273,-0.1273,0,-0.0914,-0.0922,-0.0942,-0.0949,-0.096,-0.0992,-0.101,-0.1059,-0.1099,-0.1133,-0.1234,-0.1264,-0.1327,-0.1359,-0.1354,-0.149,-0.1448,-0.1448,-0.1411,-0.1502,-0.1475,-0.1489,-0.1285,-0.1283,-0.1281,-0.1279,0,0,-0.0908,-0.0956,-0.0958,-0.0957,-0.0988,-0.0987,-0.1062,-0.1126,-0.1183,-0.1252,-0.1345,-0.1431,-0.1475,-0.1495,-0.1526,-0.1598,-0.1722,-0.1587,-0.1587,-0.159,-0.1848,-0.1586,-0.1574,-0.1773,-0.1777,-0.178,-0.1772,0,-0.0936,-0.0971,-0.0987,-0.1009,-0.1015,-0.1049,-0.1119,-0.1172,-0.1235,-0.1336,-0.1425,-0.1529,-0.1521,-0.1592,-0.1666,-0.1741,-0.1771,-0.172,-0.1742,-0.174,-0.1514,-0.1587,-0.1793,-0.1782,-0.1785,-0.1787,-0.1789,0,-0.0925,-0.0958,-0.1002,-0.1027,-0.1037,-0.1074,-0.1154,-0.1208,-0.1355,-0.1419,-0.1539,-0.1615,-0.1777,-0.1743,-0.1891,-0.1872,-0.1859,-0.1877,-0.1878,-0.1593,-0.1505,-0.1677,-0.1813,-0.1811,-0.181,-0.1808,-0.1807,0,-0.0892,-0.0929,-0.0976,-0.0979,-0.1048,-0.1096,-0.1147,-0.1255,-0.1314,-0.1502,-0.1588,-0.1752,-0.1877,-0.1938,-0.1965,-0.1976,-0.2064,-0.2077,-0.1792,-0.177,-0.1948,-0.1929,-0.212,-0.212,-0.212,-0.212,-0.212,0,-0.0883,-0.0902,-0.0972,-0.1,-0.1055,-0.1081,-0.1175,-0.1258,-0.139,-0.1423,-0.1648,-0.1659,-0.1948,-0.2012,-0.2005,-0.1919,-0.2091,-0.1801,-0.1768,-0.1998,-0.1985,-0.1955,-0.1936,-0.2119,-0.2119,-0.2119,-0.2119,0,-0.0843,-0.0905,-0.0932,-0.102,-0.1052,-0.108,-0.1184,-0.123,-0.1389,-0.1446,-0.153,-0.1698,-0.1732,-0.1892,-0.1979,-0.1946,-0.1903,-0.179,-0.1972,-0.1948,-0.1545,-0.1534,-0.154,-0.1531,-0.1523,-0.1517,-0.1511,0,-0.082,-0.084,-0.0937,-0.0951,-0.101,-0.1069,-0.112,-0.1243,-0.1245,-0.1331,-0.1319,-0.1447,-0.1507,-0.1488,-0.16,-0.1619,-0.1566,-0.1621,-0.1641,-0.1528,-0.1496,-0.1496,-0.1495,-0.1499,-0.1497,-0.1495,-0.1493,0,-0.0765,-0.0826,-0.0877,-0.0928,-0.0967,-0.0978,-0.1022,-0.1025,-0.1086,-0.1244,-0.1132,-0.1169,-0.1169,-0.125,-0.132,-0.1279,-0.1681,-0.1542,-0.1559,-0.1578,-0.1479,-0.1455,-0.1462,-0.1467,-0.1471,-0.1473,-0.1475,0,-0.0728,-0.0736,-0.0822,-0.0844,-0.0867,-0.0829,-0.0889,-0.085,-0.0888,-0.0978,-0.0845,-0.0921,-0.1033,-0.1041,-0.1007,-0.1076,-0.1065,-0.1151,-0.1188,-0.1219,-0.112,-0.0948,-0.0744,0,0,0,0,0,-0.0665,-0.0685,-0.0708,-0.0706,-0.0709,-0.0734,-0.077,-0.0812,-0.0855,-0.0753,-0.0819,-0.0748,-0.0749,-0.075,-0.0754,-0.082,-0.1072,-0.0823,-0.1191,-0.1321,-0.1351,-0.1266,0,0,0,0,0,0,-0.0633,-0.0679,-0.0695,-0.0575,-0.0532,-0.0518,-0.0543,-0.0582,-0.0535,-0.0601,-0.0604,-0.0697,-0.071,-0.0724,-0.0725,-0.0741,-0.0965,-0.0869,-0.0868,-0.1304,-0.1331,-0.1356,-0.1278,0,0,0,0,0]},{"header":{"parameterUnit":"m.s-1","parameterCategory":2,"la1":30.2991,"la2":30.254,"lo1":-89.0895,"lo2":-89.0444,"dy":0.0017,"dx":0.0017,"nx":28,"ny":28,"refTime":"2023-07-22T09:00:00:Z","depth":"4","parameterNumber":3,"parameterNumberName":"V-component_of_CURRENTS"},"data":[0,0,0,0,0,0,0,0,0,0,0,0,0,0,0,0,0,0,0,0,0,0,0,0,0,0,0,0,0,0,0,0,0,0,0,0,0,0,0,0,0,0,0,0,0,0,0,0,0,0,0,0,0,0,0,0,0,0,0.0099,0.0099,0,0.014,0.014,0.0141,0.0189,0.0189,0.019,0.0191,0.0261,0.0262,0.0264,0,0,0,0,0,0,0,0,0,0,0,0,0,0.0099,0.0098,0.0099,0.0099,0.01,0.014,0.014,0.0141,0.0189,0.0189,0.019,0.0191,0.0261,0.0262,0.0264,0,0,0,0,0,0,0,0,0,0,0,0,0,0.0116,0.0098,0.0099,0.0127,0.013,0.014,0.014,0.0141,0.0188,0.0189,0.019,0.0191,0.026,0.0262,0.0264,0.0258,0,0,0.027,0.0271,0,0,0,0,0,0,0,0,0.0115,0.0116,0.0123,0.0125,0.0128,0.0159,0.0166,0.0181,0.0188,0.0168,0.0191,0.0192,0.0228,0.0233,0.024,0.0261,0.0264,0.027,0.0271,0.0272,0.0273,0,0,0,0,0,0,0,0.0114,0.0115,0.0116,0.0123,0.0126,0.0151,0.0154,0.0169,0.0194,0.0169,0.0173,0.0175,0.023,0.0238,0.0242,0.0265,0.027,0.0272,0.0273,0.0274,0.0313,0.0313,0,0,0,0,0,0,0.0103,0.0113,0.0115,0.0117,0.0122,0.015,0.0153,0.0149,0.0193,0.02,0.0174,0.0177,0.0234,0.024,0.0245,0.0258,0.0272,0.0274,0.0275,0.0313,0.0313,0.0313,0,0,0,0,0,0,0.0103,0.0102,0.0113,0.0116,0.0119,0.0148,0.0144,0.015,0.016,0.0196,0.0204,0.0178,0.0235,0.0242,0.0263,0.026,0.0275,0.0277,0.0314,0.0313,0.0313,0.0273,0,0,0,0,0,0,0.0102,0.0102,0.0077,0.0115,0.0118,0.0112,0.0143,0.015,0.0159,0.0163,0.0202,0.021,0.0236,0.026,0.0265,0.0263,0.0278,0.0314,0.0313,0.0313,0.0274,0.0271,0.0268,0,0,0,0,0,0.0102,0.0085,0.0075,0.0075,0.0089,0.0111,0.0115,0.0141,0.0158,0.0155,0.0189,0.0209,0.0262,0.0261,0.0267,0.0266,0.0314,0.0314,0.0313,0.0275,0.0272,0.0268,0,0,0,0,0,0,0.0085,0.0089,0.008,0.0065,0.0076,0.0119,0.0116,0.0135,0.0158,0.0166,0.0205,0.0214,0.0237,0.0252,0.025,0.0277,0.0292,0.0292,0.0261,0.0257,0.0255,0.0233,0.028,0,0,0,0,0,0.0061,0.0037,0.0058,0.004,0.0047,0.0076,0.0083,0.0104,0.0136,0.0148,0.0176,0.0207,0.0238,0.0248,0.0277,0.0282,0.0331,0.0286,0.0283,0.028,0.0268,0.0388,0.0396,0.0312,0.0312,0.0312,0,0,0.0041,0.0044,0.0025,0.0031,0.0044,0.0041,0.0084,0.0099,0.0095,0.0151,0.0156,0.0201,0.024,0.0257,0.0267,0.0269,0.0322,0.028,0.0278,0.0266,0.0389,0.0397,0.0405,0.0312,0.0312,0.0312,0,0,0.0011,0.0002,-0.0024,-0.0016,-0.0002,0.0015,0.0017,0.0055,0.007,0.0082,0.013,0.0168,0.0199,0.0232,0.0253,0.0246,0.031,0.0259,0.0219,0.0336,0.0345,0.0353,0.0392,0.0404,0.0249,0.0249,0.0249,0,-0.0013,-0.0039,-0.0027,-0.0034,-0.0037,-0.0001,-0.0014,0.0003,0.0041,0.0045,0.0075,0.0143,0.0185,0.0211,0.022,0.0239,0.0301,0.0229,0.0335,0.0344,0.0353,0.0392,0.0406,0.0247,0.0247,0.0248,0.0248,0,-0.0052,-0.0077,-0.0079,-0.0096,-0.0099,-0.0095,-0.0073,-0.0073,-0.0049,-0.0027,0.001,0.008,0.0118,0.0146,0.0184,0.0254,0.0274,0.0328,0.0346,0.036,0.0398,0.0414,0.0244,0.0245,0.0246,0.0246,0,0,-0.008,-0.0108,-0.0107,-0.0135,-0.0126,-0.0128,-0.0144,-0.0145,-0.0165,-0.0105,-0.0112,-0.0023,0.0028,0.0056,0.0121,0.0219,0.0335,0.03,0.0307,0.0338,0.056,0.0373,0.0372,0.0437,0.044,0.0443,0.0548,0,-0.0112,-0.015,-0.0155,-0.0201,-0.0218,-0.0209,-0.0235,-0.0233,-0.0221,-0.0221,-0.0132,-0.01,-0.001,0.0022,0.0135,0.031,0.038,0.0298,0.0539,0.0544,0.0381,0.0385,0.0453,0.056,0.0564,0.0566,0.0568,0,-0.0139,-0.0165,-0.0213,-0.0266,-0.0273,-0.0305,-0.0349,-0.0359,-0.0352,-0.0336,-0.0283,-0.0214,-0.008,-0.0003,0.0285,0.0245,0.0382,0.0506,0.0515,0.0364,0.0386,0.0553,0.0596,0.0594,0.0592,0.059,0.0588,0,-0.0159,-0.0203,-0.0251,-0.0262,-0.0314,-0.0352,-0.0379,-0.0399,-0.0422,-0.04,-0.0411,-0.0251,-0.0164,0.0071,0.0285,0.0335,0.0569,0.0674,0.0606,0.0593,0.0752,0.0743,0.0839,0.0839,0.0838,0.0838,0.0838,0,-0.0183,-0.0223,-0.0271,-0.03,-0.0374,-0.0389,-0.0467,-0.0482,-0.0508,-0.0526,-0.0456,-0.0437,-0.0122,0.0021,0.025,0.0432,0.0547,0.0579,0.0614,0.0724,0.0711,0.0761,0.075,0.0842,0.0841,0.084,0.084,0,-0.0208,-0.023,-0.0291,-0.0358,-0.039,-0.0437,-0.0529,-0.0581,-0.0595,-0.0619,-0.0606,-0.0519,-0.0332,-0.0131,0.0217,0.035,0.056,0.0568,0.0573,0.061,0.0526,0.0513,0.0586,0.058,0.0575,0.0571,0.0568,0,-0.0233,-0.0259,-0.0338,-0.0384,-0.0426,-0.0504,-0.0571,-0.0614,-0.0644,-0.0661,-0.0656,-0.0578,-0.0496,-0.0184,0.0042,0.0338,0.0375,0.0475,0.0593,0.0476,0.0505,0.0498,0.0491,0.056,0.0559,0.0558,0.0557,0,-0.0273,-0.0291,-0.0336,-0.0428,-0.0504,-0.0593,-0.0665,-0.0685,-0.0703,-0.0734,-0.0675,-0.0582,-0.0468,-0.0216,-0.0094,0.0155,0.0441,0.0429,0.0445,0.0557,0.0447,0.0478,0.0477,0.054,0.0543,0.0544,0.0545,0,-0.0294,-0.0324,-0.0376,-0.0451,-0.0554,-0.0636,-0.0676,-0.0695,-0.0721,-0.0697,-0.0673,-0.0583,-0.0496,-0.0323,-0.0159,-0.0015,0.0102,0.0258,0.0286,0.0306,0.0169,-0.0015,-0.0048,0,0,0,0,0,-0.0309,-0.0333,-0.0407,-0.0473,-0.0579,-0.0637,-0.0722,-0.0741,-0.0737,-0.0688,-0.0673,-0.0572,-0.0406,-0.0348,-0.0223,-0.0232,0.0109,-0.0081,0.0301,0.0449,0.0468,0.0335,0,0,0,0,0,0,-0.0315,-0.0368,-0.0393,-0.0483,-0.0533,-0.0645,-0.0696,-0.0701,-0.0653,-0.0634,-0.0547,-0.0513,-0.0359,-0.0463,-0.0207,-0.0179,0.0089,-0.0014,-0.001,0.0439,0.0456,0.0471,0.0341,0,0,0,0,0]}]]